Regional Weather Roundup
Issued by NWS

Home | Current Version | Previous Version | Graphics & Text | Print | Product List | Glossary On
Versions: 1 2 3 4 5 6 7 8 9 10 11 12 13 14 15 16 17 18 19 20 21 22 23 24 25 26 27 28 29 30 31 32 33 34 35 36 37 38 39 40 41 42 43 44 45 46 47 48 49 50
000
ASUS43 KFSD 300202
RWRSD

WEATHER ROUNDUP FOR SOUTH DAKOTA
NATIONAL WEATHER SERVICE SIOUX FALLS SD
900 PM CDT MON JUN 29 2015

NOTE: "FAIR" INDICATES FEW OR NO CLOUDS BELOW 12,000 FEET WITH NO
SIGNIFICANT WEATHER AND/OR OBSTRUCTIONS TO VISIBILITY.


SDZ001>005-009-010-012>017-300300-
NORTHWEST AND NORTH CENTRAL SOUTH DAKOTA

CITY           SKY/WX    TMP DP  RH WIND       PRES   REMARKS
BUFFALO          N/A     84  65  52 SW7       29.91S
FAITH            N/A     78  64  61 S9        29.95F
MOBRIDGE       CLEAR     87  59  38 E6        29.88F
$$

SDZ012>016-024>037-041>051-057-063-072>074-300300-
SOUTHWEST AND SOUTH CENTRAL SOUTH DAKOTA

CITY           SKY/WX    TMP DP  RH WIND       PRES   REMARKS
RAPID CTY ARPT CLEAR     79  64  60 SW6       30.02F
PIERRE         CLEAR     83  67  58 NE6       29.90S
CUSTER         CLEAR     70  59  68 NW3       30.21S
ELLSWORTH AFB  CLEAR     80  64  57 SW5       30.02S
PHILIP         CLEAR     82  69  64 S5        29.94F
PINE RIDGE     CLEAR     81  64  56 CALM      30.04F
WINNER         FAIR      84  56  38 N6        29.95S
$$

SDZ004>011-016>023-039-040-300300-
NORTHEAST SOUTH DAKOTA

CITY           SKY/WX    TMP DP  RH WIND       PRES   REMARKS
ABERDEEN       MOCLDY    78  63  59 NE5       29.89S
WATERTOWN      CLOUDY    71  63  75 N6        29.90S
BROOKINGS      CLEAR     73  63  68 NW5       29.91S
SISSETON         N/A     70  63  78 N7        29.87S
$$

SDZ017-020-022-023-036>040-048>070-300300-
SOUTHEAST SOUTH DAKOTA

CITY           SKY/WX    TMP DP  RH WIND       PRES   REMARKS
SIOUX FALLS    PTCLDY    75  63  66 CALM      29.89S
HURON          MOCLDY    79  68  69 CALM      29.88S HAZE
CHAMBERLAIN    MOCLDY    84  59  42 N3        29.92S
MITCHELL       MOCLDY    80  67  64 SW5       29.90R
YANKTON        PTCLDY    79  61  53 CALM      29.89S
$$

ABBREVIATIONS USED IN REMARKS
   TC - TEMPERATURE IN CELSIUS
  WCI - WIND CHILL INDEX
   HX - HEAT INDEX
  VSB - VISIBILITY



USA.gov is the U.S. government's official web portal to all federal, state and local government web resources and services.